Weather History for KAQP - October, 2012

Change the Weather History Date:

Friday, October 12, 2012

  Actual Average Record
Temperature  
Mean Temperature 37 °F -  
Max Temperature 57 °F 57 °F 71 °F (1997)
Min Temperature 17 °F 35 °F 17 °F (2012)
Degree Days  
Heating Degree Days 28    
Moisture  
Dew Point 15 °F    
Average Humidity 49    
Maximum Humidity 93    
Minimum Humidity 16    
Precipitation  
Precipitation 0.00 in - - ()
Sea Level Pressure  
Sea Level Pressure 30.22 in    
Wind  
Wind Speed 6 mph (SSE)    
Max Wind Speed 21 mph    
Max Gust Speed 28 mph    
Visibility 10 miles    
Events      
Averages and records for this station are not official NWS values.
T = Trace of Precipitation, MM = Missing Value Source: NWS Daily Summary

Daily Weather History Graph

Daily Weather History Graph

Search for Another Location

Airport or City:

Trip Planner

Search our weather history database for the weather conditions in past years. The results will help you decide how hot, cold, wet, or windy it might be!

Date:

Astronomy

Oct. 12, 2012 Rise Set
Actual Time 7:36 AM CDT 6:43 PM CDT
Civil Twilight 7:07 AM CDT 7:12 PM CDT
Nautical Twilight 6:32 AM CDT 7:46 PM CDT
Astronomical Twilight 5:58 AM CDT 8:20 PM CDT
Moon 4:13 AM CDT (10/12) 4:59 PM CDT (10/12)
Length of Visible Light 12h 05m
Length of Day
11h 06m
Waning Crescent, 10% of the Moon is Illuminated
Oct 12
Waning Crescent
Oct 15
New
Oct 21
First Quarter
Oct 29
Full
Nov 6
Last Quarter

Hourly Weather History & Observations

Time (CDT) Temp. Windchill Dew Point Humidity Pressure Visibility Wind Dir Wind Speed Gust Speed Precip Events Conditions
12:33 AM 24.8 °F - 17.6 °F 74% 30.41 in 10.0 mi Calm Calm - N/A   Clear
12:53 AM 24.8 °F - 15.8 °F 69% 30.41 in 10.0 mi Calm Calm - N/A   Clear
1:14 AM 21.2 °F - 15.8 °F 80% 30.41 in 10.0 mi Calm Calm - N/A   Clear
1:34 AM 21.2 °F - 15.8 °F 80% 30.41 in 10.0 mi Calm Calm - N/A   Clear
1:53 AM 21.2 °F - 15.8 °F 80% 30.41 in 10.0 mi Calm Calm - N/A   Clear
2:13 AM 21.2 °F - 17.6 °F 86% 30.41 in 10.0 mi Calm Calm - N/A   Clear
2:33 AM 21.2 °F - 17.6 °F 86% 30.41 in 10.0 mi Calm Calm - N/A   Clear
2:53 AM 23.0 °F - 17.6 °F 80% 30.41 in 10.0 mi Calm Calm - N/A   Clear
3:14 AM 21.2 °F - 14.0 °F 74% 30.41 in 10.0 mi Calm Calm - N/A   Clear
4:13 AM 21.2 °F - 17.6 °F 86% 30.42 in 10.0 mi Calm Calm - N/A   Clear
4:33 AM 19.4 °F - 17.6 °F 93% 30.41 in 10.0 mi Calm Calm - N/A   Clear
4:53 AM 19.4 °F - 17.6 °F 93% 30.41 in 10.0 mi Calm Calm - N/A   Clear
5:14 AM 19.4 °F - 15.8 °F 86% 30.40 in 10.0 mi Calm Calm - N/A   Clear
5:34 AM 17.6 °F - 15.8 °F 93% 30.40 in 10.0 mi Calm Calm - N/A   Clear
5:53 AM 19.4 °F - 15.8 °F 86% 30.39 in 10.0 mi Calm Calm - N/A   Clear
6:13 AM 17.6 °F 10.7 °F 15.8 °F 93% 30.39 in 10.0 mi ESE 4.6 mph - N/A   Clear
6:53 AM 19.4 °F 14.3 °F 17.6 °F 93% 30.38 in 10.0 mi ESE 3.5 mph - N/A   Clear
7:13 AM 17.6 °F 12.3 °F 15.8 °F 93% 30.39 in 10.0 mi ESE 3.5 mph - N/A   Clear
7:34 AM 19.4 °F - 15.8 °F 86% 30.38 in 10.0 mi Calm Calm - N/A   Clear
7:54 AM 19.4 °F 14.3 °F 15.8 °F 86% 30.38 in 10.0 mi SE 3.5 mph - N/A   Clear
8:13 AM 19.4 °F 14.3 °F 15.8 °F 86% 30.38 in 10.0 mi ESE 3.5 mph - N/A   Clear
8:35 AM 21.2 °F - 19.4 °F 93% 30.38 in 10.0 mi Calm Calm - N/A   Clear
8:54 AM 26.6 °F 22.6 °F 19.4 °F 74% 30.37 in 10.0 mi ESE 3.5 mph - N/A   Clear
9:14 AM 30.2 °F 23.4 °F 21.2 °F 69% 30.36 in 10.0 mi SE 6.9 mph - N/A   Clear
9:33 AM 35.6 °F 28.0 °F 21.2 °F 56% 30.35 in 10.0 mi SE 10.4 mph - N/A   Clear
9:54 AM 37.4 °F 30.8 °F 23.0 °F 56% 30.34 in 10.0 mi SSE 9.2 mph - N/A   Clear
10:13 AM 39.2 °F 31.2 °F 21.2 °F 49% 30.34 in 10.0 mi SSE 13.8 mph - N/A   Clear
10:33 AM 42.8 °F 35.8 °F 21.2 °F 42% 30.34 in 10.0 mi SSE 13.8 mph 18.4 mph N/A   Clear
11:13 AM 44.6 °F 37.4 °F 19.4 °F 37% 30.33 in 10.0 mi SSE 16.1 mph 23.0 mph N/A   Clear
11:33 AM 46.4 °F 39.5 °F 19.4 °F 34% 30.32 in 10.0 mi South 17.3 mph 21.9 mph N/A   Clear
12:13 PM 48.2 °F - 17.6 °F 30% 30.29 in 10.0 mi SSE 15.0 mph 24.2 mph N/A   Clear
12:34 PM 48.2 °F - 17.6 °F 30% 30.28 in 10.0 mi SSE 17.3 mph 21.9 mph N/A   Clear
12:54 PM 50.0 °F - 17.6 °F 28% 30.26 in 10.0 mi SSE 16.1 mph 21.9 mph N/A   Clear
1:54 PM 53.6 °F - 12.2 °F 19% 30.22 in 10.0 mi SSE 15.0 mph 24.2 mph N/A   Clear
2:53 PM 55.4 °F - 10.4 °F 17% 30.16 in 10.0 mi South 13.8 mph 24.2 mph N/A   Clear
3:15 PM 55.4 °F - 10.4 °F 17% 30.15 in 10.0 mi South 17.3 mph 26.5 mph N/A   Clear
3:33 PM 55.4 °F - 10.4 °F 17% 30.14 in 10.0 mi South 15.0 mph 26.5 mph N/A   Clear
3:53 PM 55.4 °F - 10.4 °F 17% 30.13 in 10.0 mi South 17.3 mph 27.6 mph N/A   Clear
4:14 PM 57.2 °F - 10.4 °F 16% 30.11 in 10.0 mi SSE 20.7 mph 26.5 mph N/A   Clear
4:34 PM 57.2 °F - 10.4 °F 16% 30.10 in 10.0 mi South 17.3 mph 24.2 mph N/A   Clear
4:53 PM 55.4 °F - 10.4 °F 17% 30.08 in 10.0 mi SSE 16.1 mph 26.5 mph N/A   Clear
5:13 PM 55.4 °F - 10.4 °F 17% 30.06 in 10.0 mi SSE 15.0 mph 24.2 mph N/A   Clear
5:33 PM 55.4 °F - 10.4 °F 17% 30.05 in 10.0 mi SSE 18.4 mph 27.6 mph N/A   Clear
6:14 PM 55.4 °F - 12.2 °F 18% 30.03 in 10.0 mi SSE 15.0 mph 20.7 mph N/A   Scattered Clouds
6:34 PM 55.4 °F - 12.2 °F 18% 30.03 in 10.0 mi SSE 13.8 mph 21.9 mph N/A   Overcast
6:53 PM 55.4 °F - 12.2 °F 18% 30.02 in 10.0 mi SSE 13.8 mph 18.4 mph N/A   Overcast
7:14 PM 53.6 °F - 12.2 °F 19% 30.00 in 10.0 mi SSE 15.0 mph 18.4 mph N/A   Overcast
7:53 PM 53.6 °F - 12.2 °F 19% 29.99 in 10.0 mi SSE 12.7 mph 20.7 mph N/A   Overcast
8:14 PM 53.6 °F - 12.2 °F 19% 29.97 in 10.0 mi SSE 15.0 mph 19.6 mph N/A   Overcast
8:35 PM 53.6 °F - 12.2 °F 19% 29.96 in 10.0 mi SSE 15.0 mph 23.0 mph N/A   Overcast
8:53 PM 53.6 °F - 12.2 °F 19% 29.95 in 10.0 mi SSE 16.1 mph 21.9 mph N/A   Overcast
9:13 PM 53.6 °F - 12.2 °F 19% 29.95 in 10.0 mi SSE 16.1 mph 24.2 mph N/A   Overcast
9:33 PM 53.6 °F - 12.2 °F 19% 29.93 in 10.0 mi SSE 15.0 mph 24.2 mph N/A   Overcast
9:54 PM 53.6 °F - 12.2 °F 19% 29.92 in 10.0 mi SSE 18.4 mph 25.3 mph N/A   Overcast
10:14 PM 53.6 °F - 12.2 °F 19% 29.92 in 10.0 mi SSE 16.1 mph 21.9 mph N/A   Overcast
10:54 PM 53.6 °F - 14.0 °F 21% 29.91 in 10.0 mi SSE 13.8 mph 20.7 mph N/A   Overcast
11:14 PM 53.6 °F - 15.8 °F 22% 29.90 in 10.0 mi SSE 17.3 mph 23.0 mph N/A   Overcast
11:33 PM 53.6 °F - 15.8 °F 22% 29.89 in 10.0 mi SSE 15.0 mph 23.0 mph N/A   Overcast
11:54 PM 53.6 °F - 15.8 °F 22% 29.89 in 10.0 mi South 12.7 mph 19.6 mph N/A   Overcast